Rocky Mount, NC

2:46 PM EDT on September 26, 2016 (GMT -0400)
Rocky Mount-Wilson Regional

Weather History for KRWI - March, 2014

Change the Weather History Date:

Sunday, March 23, 2014

  Actual Average Record
Temperature  
Mean Temperature 50 °F -  
Max Temperature 59 °F 64 °F 84 °F (2012)
Min Temperature 37 °F 37 °F 23 °F (1986)
Degree Days  
Heating Degree Days 15    
Moisture  
Dew Point 42 °F    
Average Humidity 84    
Maximum Humidity 100    
Minimum Humidity 42    
Precipitation  
Precipitation 0.12 in - - ()
Sea Level Pressure  
Sea Level Pressure 29.99 in    
Wind  
Wind Speed 6 mph (North)    
Max Wind Speed 15 mph    
Max Gust Speed 23 mph    
Visibility 6 miles    
Events Fog , Rain    
Averages and records for this station are not official NWS values.
T = Trace of Precipitation, MM = Missing Value Source: NWS Daily Summary

Daily Weather History Graph

Daily Weather History Graph

Search for Another Location

Airport or City:

Trip Planner

Search our weather history database for the weather conditions in past years. The results will help you decide how hot, cold, wet, or windy it might be!

Date:

Astronomy

Mar. 23, 2014 Rise Set
Actual Time 7:10 AM EDT 7:25 PM EDT
Civil Twilight 6:45 AM EDT 7:51 PM EDT
Nautical Twilight 6:15 AM EDT 8:21 PM EDT
Astronomical Twilight 5:45 AM EDT 8:51 PM EDT
Moon 1:31 AM EDT (3/23) 11:59 AM EDT (3/23)
Length of Visible Light 13h 06m
Length of Day
12h 14m
Waning Gibbous, 55% of the Moon is Illuminated
Mar 23
Waning Gibbous
Mar 23
Last Quarter
Mar 30
New
Apr 7
First Quarter
Apr 15
Full

Hourly Weather History & Observations

Time (EDT) Temp. Windchill Dew Point Humidity Pressure Visibility Wind Dir Wind Speed Gust Speed Precip Events Conditions
12:53 AM 59.0 °F - 52.0 °F 78% 29.97 in 10.0 mi South 5.8 mph - N/A   Clear
1:53 AM 55.0 °F - 52.0 °F 89% 29.96 in 10.0 mi SSW 4.6 mph - N/A   Clear
2:53 AM 53.1 °F - 52.0 °F 96% 29.95 in 7.0 mi SSW 4.6 mph - N/A   Clear
3:53 AM 53.1 °F - 52.0 °F 96% 29.94 in 4.0 mi NNW 5.8 mph - N/A   Clear
4:16 AM 50.0 °F - 48.9 °F 96% 29.94 in 1.8 mi North 3.5 mph - N/A   Clear
4:25 AM 48.0 °F - 48.0 °F 100% 29.94 in 3.0 mi NNW 3.5 mph - N/A   Clear
4:47 AM 51.8 °F - 50.0 °F 94% 29.93 in 1.0 mi Calm Calm - N/A   Mist
4:53 AM 48.9 °F - 48.9 °F 100% 29.94 in 0.8 mi Calm Calm - N/A   Mist
4:57 AM 48.9 °F - 48.9 °F 100% 29.94 in 1.5 mi Calm Calm - N/A   Partly Cloudy
5:02 AM 48.9 °F - 48.9 °F 100% 29.93 in 3.0 mi Calm Calm - N/A   Partly Cloudy
5:09 AM 48.9 °F - 48.0 °F 97% 29.93 in 1.8 mi Calm Calm - N/A   Partly Cloudy
5:12 AM 48.0 °F - 48.0 °F 100% 29.93 in 0.8 mi Calm Calm - N/A   Mist
5:15 AM 48.9 °F - 46.9 °F 93% 29.93 in 0.2 mi Calm Calm - N/A Fog Fog
5:36 AM 45.0 °F - 44.1 °F 97% 29.93 in 0.2 mi Calm Calm - N/A Fog Fog
5:53 AM 45.0 °F 43.5 °F 45.0 °F 100% 29.94 in 0.2 mi North 3.5 mph - N/A Fog Fog
6:10 AM 45.0 °F 41.2 °F 44.1 °F 97% 29.94 in 1.0 mi North 6.9 mph - N/A   Mist
6:14 AM 45.0 °F 41.2 °F 44.1 °F 97% 29.94 in 6.0 mi NNE 6.9 mph - N/A   Scattered Clouds
6:53 AM 45.0 °F 40.6 °F 42.1 °F 90% 29.95 in 10.0 mi NE 8.1 mph - N/A   Clear
7:53 AM 48.9 °F - 39.0 °F 69% 29.97 in 10.0 mi NNE 11.5 mph - N/A   Clear
8:53 AM 53.1 °F - 36.0 °F 52% 29.99 in 10.0 mi NE 13.8 mph - N/A   Clear
9:53 AM 55.0 °F - 34.0 °F 45% 30.01 in 10.0 mi NE 13.8 mph 17.3 mph N/A   Clear
10:53 AM 55.0 °F - 32.0 °F 42% 30.01 in 10.0 mi NNE 15.0 mph 23.0 mph N/A   Mostly Cloudy
11:53 AM 55.0 °F - 33.1 °F 43% 30.01 in 10.0 mi NE 11.5 mph - N/A   Mostly Cloudy
12:53 PM 55.0 °F - 34.0 °F 45% 30.00 in 10.0 mi NE 12.7 mph - N/A   Mostly Cloudy
1:53 PM 52.0 °F - 33.1 °F 49% 30.02 in 10.0 mi NNW 15.0 mph - N/A   Mostly Cloudy
2:53 PM 48.0 °F - 36.0 °F 63% 30.01 in 9.0 mi NNW 15.0 mph - 0.00 in Rain Light Rain
3:53 PM 44.1 °F 39.5 °F 39.9 °F 85% 30.01 in 4.0 mi North 8.1 mph - 0.10 in Rain Light Rain
4:53 PM 44.1 °F 38.6 °F 39.9 °F 85% 30.01 in 6.0 mi North 10.4 mph - 0.01 in   Overcast
5:20 PM 43.0 °F 37.7 °F 39.9 °F 89% 30.01 in 5.0 mi NNE 9.2 mph - 0.00 in Rain Light Rain
5:43 PM 43.0 °F 36.8 °F 39.0 °F 86% 30.02 in 5.0 mi NNE 11.5 mph - 0.01 in Rain Light Rain
5:53 PM 43.0 °F 36.8 °F 39.0 °F 86% 30.02 in 5.0 mi NNE 11.5 mph - 0.01 in Rain Light Rain
6:53 PM 42.1 °F 37.1 °F 39.0 °F 89% 30.03 in 5.0 mi NNE 8.1 mph - 0.00 in   Overcast
7:18 PM 41.0 °F 38.0 °F 37.9 °F 89% 30.02 in 5.0 mi NE 4.6 mph - N/A   Overcast
7:41 PM 42.1 °F 37.7 °F 37.9 °F 85% 30.04 in 7.0 mi North 6.9 mph - N/A   Overcast
7:53 PM 42.1 °F 37.1 °F 39.0 °F 89% 30.05 in 6.0 mi North 8.1 mph - N/A   Overcast
8:04 PM 42.1 °F 37.1 °F 37.9 °F 85% 30.06 in 7.0 mi North 8.1 mph - N/A   Overcast
8:27 PM 41.0 °F 35.2 °F 37.9 °F 89% 30.07 in 7.0 mi North 9.2 mph - N/A   Overcast
8:53 PM 41.0 °F 34.7 °F 37.9 °F 89% 30.09 in 7.0 mi NNW 10.4 mph - N/A   Overcast
9:53 PM 41.0 °F 34.7 °F 37.0 °F 86% 30.12 in 9.0 mi North 10.4 mph - N/A   Overcast
10:53 PM 41.0 °F 35.8 °F 37.0 °F 86% 30.14 in 8.0 mi NNE 8.1 mph - N/A   Overcast
11:53 PM 37.0 °F - 34.0 °F 89% 30.15 in 7.0 mi Calm Calm - N/A   Mostly Cloudy